Time,TemperatureF,DewpointF,PressureIn,WindDirection,WindDirectionDegrees,WindSpeedMPH,WindSpeedGustMPH,Humidity,HourlyPrecipIn,Conditions,Clouds,dailyrainin,SolarRadiationWatts/m^2,SoftwareType,DateUTC
2013-05-11 00:02:00,63.0,63.0,-100.00,SSW,204,3.0,6.0,100,0.00,,,1.29,0.000000,,2013-05-11 05:02:00,
2013-05-11 00:32:00,63.0,63.0,-100.00,SW,228,3.0,7.0,100,0.00,,,-99.99,0.000000,,2013-05-11 05:32:00,
2013-05-11 00:42:00,63.0,63.0,-100.00,SW,228,3.0,7.0,100,0.00,,,-99.99,0.000000,,2013-05-11 05:42:00,
2013-05-11 00:52:00,63.0,63.0,-100.00,SW,228,3.0,7.0,100,0.00,,,-99.99,0.000000,,2013-05-11 05:52:00,
2013-05-11 01:02:00,63.0,63.0,-100.00,SW,228,3.0,7.0,100,0.00,,,-99.99,0.000000,,2013-05-11 06:02:00,
2013-05-11 01:32:00,63.0,63.0,-100.00,SSW,206,5.0,10.0,100,0.00,,,1.29,0.000000,,2013-05-11 06:32:00,
2013-05-11 01:42:00,63.0,63.0,-100.00,SSW,206,5.0,10.0,100,0.00,,,1.29,0.000000,,2013-05-11 06:42:00,
2013-05-11 01:52:00,63.0,63.0,-100.00,SSW,206,5.0,10.0,100,0.00,,,1.29,0.000000,,2013-05-11 06:52:00,
2013-05-11 02:02:00,63.0,63.0,-100.00,SSW,206,5.0,10.0,100,0.00,,,1.29,0.000000,,2013-05-11 07:02:00,
2013-05-11 02:32:00,61.0,61.0,-100.00,SW,222,2.0,10.0,100,0.08,,,-99.99,0.000000,,2013-05-11 07:32:00,
2013-05-11 02:42:00,61.0,61.0,-100.00,SW,222,2.0,10.0,100,0.08,,,-99.99,0.000000,,2013-05-11 07:42:00,
2013-05-11 02:52:00,61.0,61.0,-100.00,SW,222,2.0,10.0,100,0.08,,,-99.99,0.000000,,2013-05-11 07:52:00,
2013-05-11 03:01:00,61.0,61.0,-100.00,SW,222,2.0,10.0,100,0.08,,,-99.99,0.000000,,2013-05-11 08:01:00,
2013-05-11 03:32:00,59.0,59.0,-100.00,South,182,2.0,6.0,100,0.31,,,1.68,0.000000,,2013-05-11 08:32:00,
2013-05-11 03:43:00,59.0,59.0,-100.00,South,182,2.0,6.0,100,0.31,,,1.68,0.000000,,2013-05-11 08:43:00,
2013-05-11 03:52:00,59.0,59.0,-100.00,South,182,2.0,6.0,100,0.31,,,1.68,0.000000,,2013-05-11 08:52:00,
2013-05-11 04:01:00,59.0,59.0,-100.00,South,182,2.0,6.0,100,0.31,,,1.68,0.000000,,2013-05-11 09:01:00,
2013-05-11 04:33:00,59.0,59.0,-100.00,WSW,258,2.0,4.0,100,0.00,,,1.68,0.000000,,2013-05-11 09:33:00,
2013-05-11 04:42:00,59.0,59.0,-100.00,WSW,258,2.0,4.0,100,0.00,,,1.68,0.000000,,2013-05-11 09:42:00,
2013-05-11 04:52:00,59.0,59.0,-100.00,WSW,258,2.0,4.0,100,0.00,,,1.68,0.000000,,2013-05-11 09:52:00,
2013-05-11 05:03:00,59.0,59.0,-100.00,WSW,258,2.0,4.0,100,0.00,,,1.68,0.000000,,2013-05-11 10:03:00,
2013-05-11 05:33:00,60.0,60.0,-100.00,WNW,299,3.0,7.0,100,0.00,,,1.68,0.000000,,2013-05-11 10:33:00,
2013-05-11 05:42:00,60.0,60.0,-100.00,WNW,299,3.0,7.0,100,0.00,,,1.68,0.000000,,2013-05-11 10:42:00,
2013-05-11 05:52:00,60.0,60.0,-100.00,WNW,299,3.0,7.0,100,0.00,,,1.68,0.000000,,2013-05-11 10:52:00,
2013-05-11 06:02:00,60.0,60.0,-100.00,WNW,299,3.0,7.0,100,0.00,,,1.68,0.000000,,2013-05-11 11:02:00,
2013-05-11 06:32:00,60.0,60.0,-100.00,NW,322,3.0,6.0,100,0.00,,,-99.99,2.000000,,2013-05-11 11:32:00,
2013-05-11 06:42:00,60.0,60.0,-100.00,NW,322,3.0,6.0,100,0.00,,,-99.99,2.000000,,2013-05-11 11:42:00,
2013-05-11 06:52:00,60.0,60.0,-100.00,NW,322,3.0,6.0,100,0.00,,,-99.99,2.000000,,2013-05-11 11:52:00,
2013-05-11 07:01:00,60.0,60.0,-100.00,NW,322,3.0,6.0,100,0.00,,,-99.99,2.000000,,2013-05-11 12:01:00,
2013-05-11 07:32:00,59.0,59.0,-100.00,NNW,329,4.0,10.0,100,0.00,,,-99.99,8.000000,,2013-05-11 12:32:00,
2013-05-11 07:42:00,59.0,59.0,-100.00,NNW,329,4.0,10.0,100,0.00,,,-99.99,8.000000,,2013-05-11 12:42:00,
2013-05-11 07:52:00,59.0,59.0,-100.00,NNW,329,4.0,10.0,100,0.00,,,-99.99,8.000000,,2013-05-11 12:52:00,
2013-05-11 08:01:00,59.0,59.0,-100.00,NNW,329,4.0,10.0,100,0.00,,,-99.99,8.000000,,2013-05-11 13:01:00,
2013-05-11 08:32:00,58.0,58.0,-100.00,NNW,334,4.0,12.0,100,0.00,,,-99.99,43.000000,,2013-05-11 13:32:00,
2013-05-11 08:42:00,58.0,58.0,-100.00,NNW,334,4.0,12.0,100,0.00,,,-99.99,43.000000,,2013-05-11 13:42:00,
2013-05-11 08:52:00,58.0,58.0,-100.00,NNW,334,4.0,12.0,100,0.00,,,-99.99,43.000000,,2013-05-11 13:52:00,
2013-05-11 09:02:00,58.0,58.0,-100.00,NNW,334,4.0,12.0,100,0.00,,,-99.99,43.000000,,2013-05-11 14:02:00,
2013-05-11 09:32:00,58.0,58.0,-100.00,NNW,345,5.0,11.0,100,0.00,,,0.67,73.000000,,2013-05-11 14:32:00,
2013-05-11 09:42:00,58.0,58.0,-100.00,NNW,345,5.0,11.0,100,0.00,,,0.67,73.000000,,2013-05-11 14:42:00,
2013-05-11 09:52:00,58.0,58.0,-100.00,NNW,345,5.0,11.0,100,0.00,,,0.67,73.000000,,2013-05-11 14:52:00,
2013-05-11 10:01:00,58.0,58.0,-100.00,NNW,345,5.0,11.0,100,0.00,,,0.67,73.000000,,2013-05-11 15:01:00,
2013-05-11 11:33:00,62.0,59.0,-100.00,WSW,253,4.0,8.0,91,-99.99,,,0.53,305.000000,,2013-05-11 16:33:00,
2013-05-11 11:42:00,62.0,59.0,-100.00,WSW,253,4.0,8.0,91,-99.99,,,0.53,305.000000,,2013-05-11 16:42:00,
2013-05-11 11:53:00,62.0,59.0,-100.00,WSW,253,4.0,8.0,91,-99.99,,,0.53,305.000000,,2013-05-11 16:53:00,
2013-05-11 12:02:00,62.0,59.0,-100.00,WSW,253,4.0,8.0,91,-99.99,,,0.53,305.000000,,2013-05-11 17:02:00,
2013-05-11 13:32:00,61.0,59.0,-100.00,West,273,3.0,11.0,93,-99.99,,,0.42,190.000000,,2013-05-11 18:32:00,
2013-05-11 13:42:00,61.0,59.0,-100.00,West,273,3.0,11.0,93,-99.99,,,0.42,190.000000,,2013-05-11 18:42:00,
2013-05-11 13:52:00,61.0,59.0,-100.00,West,273,3.0,11.0,93,-99.99,,,0.42,190.000000,,2013-05-11 18:52:00,
2013-05-11 14:02:00,61.0,59.0,-100.00,West,273,3.0,11.0,93,-99.99,,,0.42,190.000000,,2013-05-11 19:02:00,
2013-05-11 14:32:00,61.0,55.0,-100.00,WNW,294,5.0,13.0,82,0.00,,,0.41,327.000000,,2013-05-11 19:32:00,
2013-05-11 14:42:00,61.0,55.0,-100.00,WNW,294,5.0,13.0,82,0.00,,,0.41,327.000000,,2013-05-11 19:42:00,
2013-05-11 14:53:00,61.0,55.0,-100.00,WNW,294,5.0,13.0,82,0.00,,,0.41,327.000000,,2013-05-11 19:53:00,
2013-05-11 15:02:00,61.0,55.0,-100.00,WNW,294,5.0,13.0,82,0.00,,,0.41,327.000000,,2013-05-11 20:02:00,
2013-05-11 15:32:00,60.0,54.0,-100.00,WNW,292,5.0,16.0,82,0.00,,,0.41,252.000000,,2013-05-11 20:32:00,
2013-05-11 15:42:00,60.0,54.0,-100.00,WNW,292,5.0,16.0,82,0.00,,,0.41,252.000000,,2013-05-11 20:42:00,
2013-05-11 15:52:00,60.0,54.0,-100.00,WNW,292,5.0,16.0,82,0.00,,,0.41,252.000000,,2013-05-11 20:52:00,
2013-05-11 16:02:00,60.0,54.0,-100.00,WNW,292,5.0,16.0,82,0.00,,,0.41,252.000000,,2013-05-11 21:02:00,
2013-05-11 16:33:00,61.0,54.0,-100.00,West,269,4.0,13.0,78,0.00,,,-99.99,286.000000,,2013-05-11 21:33:00,
2013-05-11 16:43:00,61.0,54.0,-100.00,West,269,4.0,13.0,78,0.00,,,-99.99,286.000000,,2013-05-11 21:43:00,
2013-05-11 16:53:00,61.0,54.0,-100.00,West,269,4.0,13.0,78,0.00,,,-99.99,286.000000,,2013-05-11 21:53:00,
2013-05-11 17:02:00,61.0,54.0,-100.00,West,269,4.0,13.0,78,0.00,,,-99.99,286.000000,,2013-05-11 22:02:00,
2013-05-11 17:33:00,62.0,55.0,-100.00,NW,309,5.0,11.0,79,0.00,,,0.41,252.000000,,2013-05-11 22:33:00,
2013-05-11 17:43:00,62.0,55.0,-100.00,NW,309,5.0,11.0,79,0.00,,,0.41,252.000000,,2013-05-11 22:43:00,
2013-05-11 17:52:00,62.0,55.0,-100.00,NW,309,5.0,11.0,79,0.00,,,0.41,252.000000,,2013-05-11 22:52:00,
2013-05-11 18:02:00,62.0,55.0,-100.00,NW,309,5.0,11.0,79,0.00,,,0.41,252.000000,,2013-05-11 23:02:00,
2013-05-11 18:32:00,61.0,54.0,-100.00,NW,324,5.0,11.0,79,0.00,,,0.41,182.000000,,2013-05-11 23:32:00,
2013-05-11 18:42:00,61.0,54.0,-100.00,NW,324,5.0,11.0,79,0.00,,,0.41,182.000000,,2013-05-11 23:42:00,
2013-05-11 18:52:00,61.0,54.0,-100.00,NW,324,5.0,11.0,79,0.00,,,0.41,182.000000,,2013-05-11 23:52:00,
2013-05-11 19:01:00,61.0,54.0,-100.00,NW,324,5.0,11.0,79,0.00,,,0.41,182.000000,,2013-05-12 00:01:00,
2013-05-11 19:32:00,61.0,52.0,-100.00,West,280,2.0,11.0,72,0.00,,,-99.99,97.000000,,2013-05-12 00:32:00,
2013-05-11 19:42:00,61.0,52.0,-100.00,West,280,2.0,11.0,72,0.00,,,-99.99,97.000000,,2013-05-12 00:42:00,
2013-05-11 19:52:00,61.0,52.0,-100.00,West,280,2.0,11.0,72,0.00,,,-99.99,97.000000,,2013-05-12 00:52:00,
2013-05-11 20:01:00,61.0,52.0,-100.00,West,280,2.0,11.0,72,0.00,,,-99.99,97.000000,,2013-05-12 01:01:00,
2013-05-11 20:32:00,56.0,54.0,-100.00,SSE,158,0.0,2.0,92,0.00,,,0.40,9.000000,,2013-05-12 01:32:00,
2013-05-11 20:42:00,56.0,54.0,-100.00,SSE,158,0.0,2.0,92,0.00,,,0.40,9.000000,,2013-05-12 01:42:00,
2013-05-11 20:52:00,56.0,54.0,-100.00,SSE,158,0.0,2.0,92,0.00,,,0.40,9.000000,,2013-05-12 01:52:00,
2013-05-11 21:01:00,56.0,54.0,-100.00,SSE,158,0.0,2.0,92,0.00,,,0.40,9.000000,,2013-05-12 02:01:00,
2013-05-11 21:32:00,54.0,54.0,-100.00,South,183,2.0,2.0,100,0.00,,,0.40,0.000000,,2013-05-12 02:32:00,
2013-05-11 21:42:00,54.0,54.0,-100.00,South,183,2.0,2.0,100,0.00,,,0.40,0.000000,,2013-05-12 02:42:00,
2013-05-11 21:52:00,54.0,54.0,-100.00,South,183,2.0,2.0,100,0.00,,,0.40,0.000000,,2013-05-12 02:52:00,
2013-05-11 22:01:00,54.0,54.0,-100.00,South,183,2.0,2.0,100,0.00,,,0.40,0.000000,,2013-05-12 03:01:00,
2013-05-11 22:33:00,54.0,54.0,-100.00,SW,214,1.0,3.0,100,0.00,,,0.40,0.000000,,2013-05-12 03:33:00,
2013-05-11 22:43:00,54.0,54.0,-100.00,SW,214,1.0,3.0,100,0.00,,,0.40,0.000000,,2013-05-12 03:43:00,
2013-05-11 22:53:00,54.0,54.0,-100.00,SW,214,1.0,3.0,100,0.00,,,0.40,0.000000,,2013-05-12 03:53:00,
2013-05-11 23:03:00,-999.0,-99.9,-100.00,SW,214,1.0,3.0,100,0.00,,,0.40,0.000000,,2013-05-12 04:03:00,
2013-05-11 23:33:00,56.0,56.0,-100.00,North,352,7.0,14.0,99,0.00,,,0.40,0.000000,,2013-05-12 04:33:00,
2013-05-11 23:43:00,56.0,56.0,-100.00,North,352,7.0,14.0,99,0.00,,,0.40,0.000000,,2013-05-12 04:43:00,
2013-05-11 23:52:00,56.0,56.0,-100.00,North,352,7.0,14.0,99,0.00,,,0.40,0.000000,,2013-05-12 04:52:00,